Regional Weather Roundup
Issued by NWS

Home | Current Version | Previous Version | Graphics & Text | Print | Product List | Glossary On
Versions: 1 2 3 4 5 6 7 8 9 10 11 12 13 14 15 16 17 18 19 20 21 22 23 24 25 26 27 28 29 30 31 32 33 34 35 36 37 38 39 40 41 42 43 44 45 46 47 48 49 50
000
ASUS43 KMKX 292321
RWRWI

WISCONSIN REGIONAL WEATHER ROUNDUP
NATIONAL WEATHER SERVICE MILWAUKEE/SULLIVAN WI
600 PM CDT MON JUN 29 2015

NOTE: "FAIR" INDICATES FEW OR NO CLOUDS BELOW 12,000 FEET WITH NO
SIGNIFICANT WEATHER AND/OR OBSTRUCTIONS TO VISIBILITY.

WIZ001-002-006>008-014>016-023>028-300000-
NORTHWEST WISCONSIN

CITY           SKY/WX    TMP DP  RH WIND       PRES   REMARKS
SUPERIOR ARPT  MOSUNNY   74  65  73 CALM      29.76R
ASHLAND        MOSUNNY   74  64  71 N3        29.76S
HAYWARD        PTSUNNY   69  57  65 CALM      29.79S
SIREN          CLOUDY    62  59  90 CALM      29.79R
CUMBERLAND     CLOUDY    61  59  94 CALM      29.79S
RICE LAKE      CLOUDY    64  60  84 SE3       29.79F
CHETEK         CLOUDY    63  61  92 S5        29.78F
LADYSMITH      CLOUDY    63  59  88 CALM      29.80S
EAU CLAIRE     LGT RAIN  61  58  90 SE5       29.78F
MENOMONIE      CLOUDY    61  60  99 E8        29.81F
NEW RICHMOND   HVY RAIN  64  57  79 N23       29.88R
OSCEOLA        HVY RAIN  62  56  82 SE6G17    29.84R
$$

WIZ003>005-009-010-017-018-300000-
NORTH CENTRAL WISCONSIN

CITY           SKY/WX    TMP DP  RH WIND       PRES   REMARKS
MANITOWISH WTR CLOUDY    64  62  93 W7        29.77S
ARBOR VITAE    CLOUDY    64  61  90 NW5       29.77R
WOODRUFF       CLOUDY    64  61  90 NW5       29.77R
RHINELANDER    CLOUDY    64  59  83 NW6       29.78R
EAGLE RIVER    CLOUDY    64  56  75 N5        29.78R
LAND O LAKES   CLOUDY    64  61  91 CALM      29.79R
PHILLIPS       CLOUDY    62  60  93 W3        29.79R
TOMAHAWK       CLOUDY    61  59  92 W5        29.79S
MEDFORD        CLOUDY    60  58  96 W7        29.81R
MERRILL        CLOUDY    63  61  96 W7        29.78F
$$

WIZ029-030-035-036-043>047-300000-
CENTRAL WISCONSIN

CITY           SKY/WX    TMP DP  RH WIND       PRES   REMARKS
WAUSAU         CLOUDY    62  58  86 W8        29.76F
MOSINEE        DRIZZLE   61  61 100 W9        29.79F
MARSHFIELD     LGT RAIN  61  57  87 SW10      29.79F FOG
STEVENS POINT  LGT RAIN  60  57  90 W5        29.79F
WAUPACA        PTSUNNY   71  64  79 S5        29.77S
WAUTOMA        PTSUNNY   74  65  73 CALM      29.78S
WISC RAPIDS    CLOUDY    62  57  83 W8        29.82F
CAMP DOUGLAS   TSTM      66  64  94 N13G18    29.82R FOG
$$

WIZ011>013-019>022-031-037>040-048>050-300000-
NORTHEAST WISCONSIN

CITY           SKY/WX    TMP DP  RH WIND       PRES   REMARKS
ANTIGO         CLOUDY    63  59  86 E8        29.78S
SHAWANO        PTSUNNY   70  64  83 S3        29.77R
OCONTO         CLOUDY    70  68  94 SW3       29.75F
STURGEON BAY   MOSUNNY   68  55  64 S10       29.78F
GREEN BAY      LGT RAIN  69  62  78 SW3       29.76F
MANITOWOC      MOSUNNY   70  60  70 MISG      29.78F
APPLETON       PTSUNNY   72  61  68 SW7       29.77F
CLINTONVILLE   PTSUNNY  N/A N/A N/A S8        29.76R
OSHKOSH        CLOUDY    75  64  68 SW8       29.76F
$$

WIZ032>034-041-042-053>061-300000-
SOUTHWEST WISCONSIN

CITY           SKY/WX    TMP DP  RH WIND       PRES   REMARKS
LA CROSSE      TSTM      68  63  84 N16G22    29.81S
SPARTA         CLOUDY    64  58  79 N10G17    29.83R
VIROQUA        CLOUDY    72  64  77 N5        29.80F
BOSCOBEL       MOSUNNY   79  64  60 NW3       29.78S HX  81
PRAIRIE DU CHI MOSUNNY   78  61  57 CALM      29.78S
PLATTEVILLE    SUNNY     79  60  52 NW12      29.80R HX  80
$$

WIZ056-057-062-063-064-067-068-300000-
SOUTH CENTRAL WISCONSIN

CITY           SKY/WX    TMP DP  RH WIND       PRES   REMARKS
REEDSBURG      MOSUNNY   76  62  63 NW6       29.78S
BARABOO/DELLS  MOSUNNY   75  60  59 NW5       29.79S THUNDER
LONE ROCK      MOSUNNY   79  60  52 NW9       29.78S HX  80
MINERAL POINT  SUNNY     79  61  53 NW8       29.80S HX  80
MADISON        PTSUNNY   75  62  64 S3        29.78S
MIDDLETON      PTSUNNY   78  60  53 CALM      29.79S
WATERTOWN      MOSUNNY   73  65  74 S3        29.78S
MONROE         RAIN      70  64  83 CALM      29.79S
JANESVILLE     MOSUNNY   72  61  68 VRB3      29.78F
$$

WIZ051-052-058>065-066-070>072-300000-
SOUTHEAST WISCONSIN

CITY           SKY/WX    TMP DP  RH WIND       PRES   REMARKS
MILWAUKEE      MOSUNNY   70  61  73 SE10      29.80S
WAUKESHA       MOSUNNY   72  59  64 SW6       29.81S
MILWAUKEE/TIMM NOT AVBL
RACINE         PTSUNNY   69  61  75 SE8       29.82S
BURLINGTON     MOSUNNY   72  62  70 SW6       29.79F
KENOSHA        PTSUNNY   70  62  76 SE8       29.80S
FOND DU LAC    LGT RAIN  73  63  70 S6        29.78S
SHEBOYGAN      MOSUNNY   73  59  61 S12       29.78F
WEST BEND      PTSUNNY   68  61  77 E6        29.79F
JUNEAU         MOSUNNY   72  62  71 SW7       29.79S
$$

LSZ147-162-300000-
LAKE SUPERIOR

STATION/POSITION TIME  TEMP    WIND        PRES    WAVE
                       AIR SEA DIR/SP/G            HT/PER
                 (UTC) (F)     (DEG/KT/KT) (MB)    (FT/S)
W MID LAKE BUOY  2250   51 39  300/  4/  4 1007.5F   0
DEVILS ISLAND    2300   64     250/  5/  6 1007.6R
SAXON HARBOR     2200   68        CALM     1007.5
$$

LMZ867-665-643>646-300000-
LAKE MICHIGAN

STATION/POSITION TIME  TEMP    WIND        PRES    WAVE
                       AIR SEA DIR/SP/G            HT/PER
                 (UTC) (F)     (DEG/KT/KT) (MB)    (FT/S)
CHAMBERS ISLAND  2200   76     150/  7/ 12 1007.5F
S GREEN BAY BUOY 2200   75 72  180/ 12/ 16 1008.9F
N MID LAKE BUOY  2250   59 52  200/  6/  8 1007.9F   1
NORTHPORT PIER   2240   70     140/  8/ 11 1007.5F
ALGOMA LAKESHORE 2210          210/ 11/ 13   N/A
KEWAUNEE LAKESHO 2300   62     190/ 10/ 12 1007.6F
SHEBOYGAN LAKESH 2300   61     170/ 14/ 15 1008.8F
PORT WASHINGTON  2200   65     170/  6/  7 1009.8R
ATWATER BUOY     2300   63 61  150/  8/ 10 1010.3F
MILWAUKEE LAKESH 2300   62     140/ 10/ 11   N/A
KENOSHA   LAKESH 2300   65     170/  5/  6 1008.8S
$$

TC  - TEMPERATURE IN CELSIUS
VSB - VISIBILITY IN STATUTE MILES
WCI - WIND CHILL INDEX
HX  - HEAT INDEX



USA.gov is the U.S. government's official web portal to all federal, state and local government web resources and services.